Terminal Aerodrome Forecast
Issued by NWS Boston, MA

Home | Current Version | Previous Version | Text Only | Print | Product List | Glossary On
Versions: 1 2 3 4 5 6 7 8 9 10 11 12 13 14 15 16 17 18 19 20 21 22 23 24 25 26 27 28 29 30 31 32 33 34 35 36 37 38 39 40 41
000
FTUS41 KBOX 011440 AAA
TAFBOS
TAF AMD
KBOS 011440Z 0115/0218 02012KT 4SM -RA BR OVC005
     FM020100 03012KT 2SM -SHRA BR OVC008
     FM020600 03013KT 4SM BR OVC008
     FM021500 04013KT P6SM OVC015=

USA.gov is the U.S. government's official web portal to all federal, state and local government web resources and services.